ORBCOMM FM15 [-]

Last updated on Fri Dec 29 2023 00:02:53 GMT+0000 (Coordinated Universal Time)

1 25418U 98046F 23361.91575482 .00001560 00000+0 58871-3 0 9996 2 25418 44.9956 200.8285 0003922 114.2651 245.8606 14.35271168326976
UTC large
Height (km)
Speed (km/s)
/
Latitude / Longitude
Inclination (degrees)
Orbital Period (minutes)
Azimuth
Elevation
Range (km)
Doppler Factor

Next 0 passes for location: London (51.5072 / 0.1276)

Sorry there are no passes over London.
ORBCOMM FM15 [-]